User: anonymous   Login
Location: Caltech
(34.1382°N, 118.1253°W)
Time: 12:08:11
(UTC-08:00)
Language:

ASTRO E2 - Orbit

View from above orbital plane
View from above orbital plane
View from above satellite
View from above satellite

Ground track
Ground track

The orbit data is extracted from the following two-line orbital elements,

1 28773U 05025A   14355.36414583  .00013669  00000-0  79694-3 0  4371
2 28773 031.3846 054.3435 0005328 246.7801 195.5111 15.10813805519509
Epoch (UTC): 21 December 2014 08:44:22
Eccentricity: 0.0005328
inclination: 31.3846°
perigee height: 530 km
apogee height: 537 km
right ascension of ascending node: 54.3435°
argument of perigee: 246.7801°
revolutions per day: 15.10813805
mean anomaly at epoch: 195.5111°
orbit number at epoch: 51950

The dashed part of the orbit path shows where the satellite is in the earth's shadow,  

DLR